Weather History for Orlando International, FL

Change the Weather History Date:

Thursday, February 21, 2013

  Actual Average Record
Temperature  
Mean Temperature 70 °F 64 °F  
Max Temperature 83 °F 75 °F 88 °F (1989)
Min Temperature 57 °F 53 °F 33 °F (1977)
Degree Days  
Heating Degree Days 0 3  
Month to date heating degree days 86 94  
Since 1 July heating degree days 308 478  
Cooling Degree Days 5 2  
Month to date cooling degree days 53 42  
Year to date cooling degree days 154 87  
Growing Degree Days 20 (Base 50)    
Moisture  
Dew Point 58 °F    
Average Humidity 69    
Maximum Humidity 93    
Minimum Humidity 45    
Precipitation  
Precipitation 0.00 in 0.09 in 1.00 in (1984)
Month to date precipitation 0.50 1.76  
Year to date precipitation 0.74 4.11  
Sea Level Pressure  
Sea Level Pressure 30.07 in    
Wind  
Wind Speed 6 mph (East)    
Max Wind Speed 13 mph    
Max Gust Speed 16 mph    
Visibility 10 miles    
Events      
T = Trace of Precipitation, MM = Missing Value Source: NWS Daily Summary

Daily Weather History Graph

Daily Weather History Graph

Search for Another Location

Airport:

Trip Planner

Search our weather history database for the weather conditions in past years. The results will help you decide how hot, cold, wet, or windy it might be!

Date:

Astronomy

Feb. 21, 2013 Rise Set
Actual Time 6:57 AM EST 6:20 PM EST
Civil Twilight 6:33 AM EST 6:44 PM EST
Nautical Twilight 6:06 AM EST 7:11 PM EST
Astronomical Twilight 5:39 AM EST 7:38 PM EST
Moon 2:46 PM EST (2/21) 3:48 AM EST (2/21)
Length of Visible Light 12h 10m
Length of Day
11h 22m
Waxing Gibbous, 83% of the Moon is Illuminated
Feb 21
Waxing Gibbous
Feb 25
Full
Mar 4
Last Quarter
Mar 11
New
Mar 19
First Quarter

Hourly Weather History & Observations

Time (EST) Temp. Heat Index Dew Point Humidity Pressure Visibility Wind Dir Wind Speed Gust Speed Precip Events Conditions
12:53 AM 59.0 °F - 55.0 °F 87% 30.09 in 10.0 mi North 3.5 mph - N/A   Mostly Cloudy
1:53 AM 57.9 °F - 54.0 °F 87% 30.08 in 10.0 mi North 4.6 mph - N/A   Scattered Clouds
2:31 AM 59.0 °F - 55.4 °F 88% 30.07 in 10.0 mi North 5.8 mph - N/A   Mostly Cloudy
2:53 AM 60.1 °F - 55.0 °F 83% 30.07 in 10.0 mi North 4.6 mph - N/A   Mostly Cloudy
3:53 AM 61.0 °F - 55.9 °F 83% 30.06 in 10.0 mi NNE 6.9 mph - N/A   Mostly Cloudy
4:53 AM 61.0 °F - 54.0 °F 78% 30.07 in 10.0 mi NNE 4.6 mph - N/A   Mostly Cloudy
5:53 AM 62.1 °F - 53.1 °F 72% 30.08 in 10.0 mi North 4.6 mph - N/A   Overcast
6:53 AM 61.0 °F - 52.0 °F 72% 30.08 in 10.0 mi Calm Calm - N/A   Mostly Cloudy
7:53 AM 64.0 °F - 53.1 °F 67% 30.11 in 10.0 mi NNE 4.6 mph - N/A   Mostly Cloudy
8:53 AM 69.1 °F - 55.9 °F 63% 30.13 in 10.0 mi NE 8.1 mph - N/A   Mostly Cloudy
9:53 AM 73.0 °F - 61.0 °F 66% 30.12 in 10.0 mi ENE 9.2 mph - N/A   Scattered Clouds
10:53 AM 75.9 °F - 63.0 °F 64% 30.12 in 10.0 mi ESE 8.1 mph - N/A   Scattered Clouds
11:53 AM 77.0 °F - 61.0 °F 58% 30.10 in 10.0 mi SSW 3.5 mph - N/A   Scattered Clouds
12:53 PM 80.1 °F 80.7 °F 59.0 °F 48% 30.07 in 10.0 mi Variable 6.9 mph - N/A   Scattered Clouds
1:53 PM 81.0 °F 81.6 °F 60.1 °F 49% 30.05 in 10.0 mi South 9.2 mph - N/A   Mostly Cloudy
2:53 PM 80.1 °F 81.1 °F 61.0 °F 52% 30.03 in 10.0 mi SSW 6.9 mph - N/A   Mostly Cloudy
3:53 PM 80.1 °F 81.1 °F 61.0 °F 52% 30.03 in 10.0 mi South 4.6 mph - N/A   Mostly Cloudy
4:53 PM 81.0 °F 81.1 °F 57.9 °F 45% 30.01 in 10.0 mi SSE 5.8 mph - N/A   Mostly Cloudy
5:53 PM 78.1 °F - 57.9 °F 50% 30.02 in 10.0 mi SE 3.5 mph - N/A   Mostly Cloudy
6:53 PM 72.0 °F - 62.1 °F 71% 30.03 in 10.0 mi ESE 6.9 mph - N/A   Mostly Cloudy
7:53 PM 72.0 °F - 62.1 °F 71% 30.04 in 10.0 mi ESE 8.1 mph - N/A   Mostly Cloudy
8:53 PM 68.0 °F - 62.1 °F 81% 30.05 in 10.0 mi ESE 5.8 mph - N/A   Scattered Clouds
9:53 PM 69.1 °F - 64.9 °F 87% 30.05 in 10.0 mi SSE 9.2 mph - N/A   Scattered Clouds
10:53 PM 68.0 °F - 66.0 °F 93% 30.06 in 10.0 mi SSE 9.2 mph - N/A   Scattered Clouds
11:53 PM 68.0 °F - 66.0 °F 93% 30.06 in 10.0 mi SSE 5.8 mph - N/A   Mostly Cloudy